Nowra Airport

Jump to: basic info | weather | frequencies | runways | comments

Related pages: nearby airports | nearby navaids | notams | map

Basic information (top)

Codes: NOA YSNW
Location: lon -34.948898, lat 150.537003, elev 400 ft / 122 m msl
Status: medium_airport

Weather (top)

Current conditions (rec'd 2015/03/31 16:00Z):

YSNW 311600Z AUTO 28006KT 9999 // SCT022 15/15 Q1024

Airport forecast for Sydney Kingsford Smith International Airport 68nm (126km) NNE (rec'd 2015/03/30 00:34Z):

TAF YSSY 302304Z 3100/0106 13010KT 9999 -SHRA FEW010 BKN020 
     FM310200 10010KT 9999 -SHRA SCT025 SCT035 
     FM310600 05010KT 9999 -SHRA SCT025 SCT035 
     FM311200 31008KT 9999 SCT020 
     FM010000 04010KT 9999 FEW030 INTER 3100/3109 4000 SHRA BKN010 PROB30 
      TEMPO 3100/3102 3000 TSRA BKN008 FEW030CB

Frequencies (top)

Verify before use: may be inaccurate or out of date.

APP: 123.5 MHz (APP)
ATIS: 28.04 MHz (ATIS)
CLD: 128.35 MHz (CLNC DEL)
CTAF: 118.85 MHz (CTAF)
FSS: 121.2 MHz (MELBOURNE CNTR)
GND: 135.85 MHz (GND)
TWR: 118.85 MHz (TWR)

Runways (top)

03/21: 6,713 x 148 ft (2,046 x 45 m) — paved — lighted

08/26: 6,870 x 148 ft (2,094 x 45 m) — paved — lighted — threshold 26 displaced 298 ft (91 m)

Latest comments (top)

No comments yet for Nowra Airport

More... (top)

See also NOTAMs and nearby airports and navaids, or visit the Nowra Airport page at the main OurAirports website..